Back to catalog

ICEYE-X51

AliveScienceSSO
NORAD 63257·PAYLOAD·🇺🇸 United States

Launched Mar 15, 2025 from Vandenberg Space Force Base

Loading…

Next Passes (next 24 hours)

TLE

FreshSource: Space-Track

Epoch: Sep 14, 2026, 20:40 UTC

1 63257U 25052AZ  26257.86121865  .00003772  00000-0  30130-3 0  9995
2 63257  97.7701 152.8601 0001854  61.0141 299.1268 15.00867786 82252

Track ICEYE-X51 in real time with AllMySat

Download on the App Store